When you browse on this site, cookies collect data to enhance your experience and personalize the content and advertising you see.
Visit our Privacy Policy to learn more. By continuing to use the site, you agree to this use of cookies and data.

Hourly Weather Kartyzhi

Today, 15 August, Saturday

Time Temperature Precipitation Wind Pressure Humidity
00:00 +11°C° 0 mm 1 mps 744 mmHg 82%
01:00 +11°C° 0 mm 1 mps 744 mmHg 83%
02:00 +10°C° 0 mm 1 mps 744 mmHg 85%
03:00 +10°C° 0 mm 1 mps 744 mmHg 85%
04:00 +10°C° 0 mm 1 mps 744 mmHg 86%
05:00 +10°C° 0 mm 1 mps 744 mmHg 87%
06:00 +12°C° 0 mm 2 mps 744 mmHg 82%
07:00 +14°C° 0 mm 2 mps 744 mmHg 78%
08:00 +15°C° 0 mm 2 mps 744 mmHg 73%
09:00 +17°C° 0 mm 2 mps 744 mmHg 72%
10:00 +18°C° 0 mm 2 mps 744 mmHg 70%
11:00 +19°C° 0 mm 3 mps 744 mmHg 69%
12:00 +19°C° 0.2 mm 3 mps 744 mmHg 69%
13:00 +20°C° 0.2 mm 3 mps 744 mmHg 70%
14:00 +20°C° 0.2 mm 4 mps 743 mmHg 70%
15:00 +20°C° 0.6 mm 4 mps 743 mmHg 73%
16:00 +20°C° 0.6 mm 4 mps 743 mmHg 77%
17:00 +19°C° 0.6 mm 3 mps 742 mmHg 80%
18:00 +18°C° 0.3 mm 3 mps 742 mmHg 84%
19:00 +17°C° 0.3 mm 3 mps 742 mmHg 88%
20:00 +16°C° 0.3 mm 3 mps 742 mmHg 93%
21:00 +14°C° 0.1 mm 3 mps 742 mmHg 93%
22:00 +14°C° 0.1 mm 3 mps 742 mmHg 94%
23:00 +14°C° 0.1 mm 3 mps 742 mmHg 95%

Tomorrow, 16 August, Sunday

Time Temperature Precipitation Wind Pressure Humidity
00:00 +14°C° 0 mm 2 mps 742 mmHg 95%
01:00 +14°C° 0 mm 2 mps 742 mmHg 95%
02:00 +14°C° 0 mm 2 mps 742 mmHg 95%
03:00 +14°C° 0 mm 2 mps 742 mmHg 95%
04:00 +13°C° 0 mm 2 mps 742 mmHg 95%
05:00 +13°C° 0 mm 2 mps 742 mmHg 95%
06:00 +15°C° 0 mm 2 mps 742 mmHg 91%
07:00 +17°C° 0 mm 2 mps 742 mmHg 87%
08:00 +18°C° 0 mm 2 mps 742 mmHg 83%
09:00 +20°C° 0.1 mm 2 mps 742 mmHg 79%
10:00 +21°C° 0.1 mm 2 mps 742 mmHg 74%
11:00 +22°C° 0.1 mm 3 mps 742 mmHg 70%
12:00 +24°C° 0.2 mm 3 mps 742 mmHg 68%
13:00 +24°C° 0.2 mm 3 mps 742 mmHg 66%
14:00 +25°C° 0.2 mm 3 mps 742 mmHg 65%
15:00 +25°C° 0.2 mm 3 mps 742 mmHg 68%
16:00 +25°C° 0.2 mm 3 mps 742 mmHg 71%
17:00 +24°C° 0.2 mm 3 mps 742 mmHg 74%
18:00 +22°C° 0 mm 3 mps 742 mmHg 78%
19:00 +20°C° 0 mm 2 mps 742 mmHg 82%
20:00 +18°C° 0 mm 2 mps 742 mmHg 86%
21:00 +18°C° 0 mm 2 mps 742 mmHg 87%
22:00 +17°C° 0 mm 2 mps 742 mmHg 88%
23:00 +17°C° 0 mm 3 mps 742 mmHg 89%

Day after tomorrow, 17 August, Monday

Time Temperature Precipitation Wind Pressure Humidity
00:00 +16°C° 0 mm 3 mps 742 mmHg 90%
01:00 +16°C° 0 mm 3 mps 742 mmHg 91%
02:00 +16°C° 0 mm 3 mps 742 mmHg 92%
03:00 +16°C° 0 mm 2 mps 742 mmHg 92%
04:00 +15°C° 0 mm 2 mps 741 mmHg 92%
05:00 +15°C° 0 mm 2 mps 741 mmHg 92%
06:00 +17°C° 0 mm 2 mps 741 mmHg 88%
07:00 +18°C° 0 mm 3 mps 741 mmHg 84%
08:00 +20°C° 0 mm 3 mps 742 mmHg 81%
09:00 +21°C° 0 mm 3 mps 742 mmHg 76%
10:00 +24°C° 0 mm 3 mps 741 mmHg 72%
11:00 +25°C° 0 mm 4 mps 741 mmHg 67%
12:00 +25°C° 0 mm 4 mps 741 mmHg 65%
13:00 +26°C° 0 mm 4 mps 741 mmHg 64%
14:00 +26°C° 0 mm 4 mps 741 mmHg 62%
15:00 +26°C° 0.1 mm 3 mps 740 mmHg 65%
16:00 +26°C° 0.1 mm 3 mps 740 mmHg 68%
17:00 +25°C° 0.1 mm 2 mps 740 mmHg 71%
18:00 +23°C° 0.1 mm 2 mps 740 mmHg 75%
19:00 +21°C° 0.1 mm 2 mps 740 mmHg 78%
20:00 +20°C° 0.1 mm 1 mps 740 mmHg 82%
21:00 +20°C° 0 mm 1 mps 740 mmHg 83%
22:00 +19°C° 0 mm 1 mps 740 mmHg 84%
23:00 +19°C° 0 mm 1 mps 740 mmHg 85%

18 August, Tuesday

Time Temperature Precipitation Wind Pressure Humidity
00:00 +18°C° 0 mm 1 mps 740 mmHg 86%
01:00 +18°C° 0 mm 1 mps 740 mmHg 88%
02:00 +18°C° 0 mm 1 mps 739 mmHg 89%
03:00 +18°C° 0 mm 1 mps 739 mmHg 89%
04:00 +18°C° 0 mm 1 mps 739 mmHg 89%
05:00 +18°C° 0 mm 1 mps 739 mmHg 89%
06:00 +19°C° 0 mm 1 mps 739 mmHg 86%
07:00 +20°C° 0 mm 1 mps 739 mmHg 82%
08:00 +20°C° 0 mm 2 mps 739 mmHg 79%
09:00 +23°C° 0.3 mm 2 mps 738 mmHg 74%
10:00 +24°C° 0.3 mm 2 mps 738 mmHg 69%
11:00 +25°C° 0.3 mm 2 mps 738 mmHg 64%
12:00 +26°C° 0.1 mm 3 mps 738 mmHg 61%
13:00 +26°C° 0.1 mm 3 mps 738 mmHg 59%
14:00 +26°C° 0.1 mm 3 mps 737 mmHg 56%
15:00 +26°C° 0.1 mm 3 mps 737 mmHg 61%
16:00 +25°C° 0.1 mm 2 mps 737 mmHg 65%
17:00 +25°C° 0.1 mm 2 mps 736 mmHg 70%
18:00 +23°C° 0.1 mm 2 mps 736 mmHg 73%
19:00 +20°C° 0.1 mm 2 mps 736 mmHg 77%
20:00 +18°C° 0.1 mm 2 mps 736 mmHg 80%
21:00 +18°C° 0 mm 2 mps 736 mmHg 80%
22:00 +18°C° 0 mm 2 mps 735 mmHg 80%
23:00 +17°C° 0 mm 2 mps 735 mmHg 80%

19 August, Wednesday

Time Temperature Precipitation Wind Pressure Humidity
00:00 +17°C° 0.3 mm 2 mps 735 mmHg 83%
01:00 +17°C° 0.3 mm 2 mps 735 mmHg 85%
02:00 +17°C° 0.3 mm 2 mps 735 mmHg 87%
03:00 +17°C° 0.4 mm 2 mps 734 mmHg 89%
04:00 +17°C° 0.4 mm 2 mps 734 mmHg 91%
05:00 +17°C° 0.4 mm 2 mps 734 mmHg 94%
06:00 +18°C° 0 mm 2 mps 734 mmHg 92%
07:00 +19°C° 0 mm 3 mps 734 mmHg 91%
08:00 +20°C° 0 mm 3 mps 734 mmHg 89%
09:00 +21°C° 0.4 mm 3 mps 734 mmHg 86%
10:00 +22°C° 0.4 mm 3 mps 735 mmHg 83%
11:00 +23°C° 0.4 mm 4 mps 735 mmHg 80%
12:00 +24°C° 1 mm 3 mps 734 mmHg 77%
13:00 +25°C° 1 mm 3 mps 734 mmHg 73%
14:00 +26°C° 1 mm 3 mps 734 mmHg 69%
15:00 +26°C° 0.3 mm 3 mps 734 mmHg 72%
16:00 +26°C° 0.3 mm 3 mps 734 mmHg 75%
17:00 +25°C° 0.3 mm 2 mps 734 mmHg 78%
18:00 +24°C° 0.4 mm 2 mps 734 mmHg 81%
19:00 +23°C° 0.4 mm 2 mps 734 mmHg 84%
20:00 +20°C° 0.4 mm 2 mps 734 mmHg 87%
21:00 +20°C° 0.1 mm 2 mps 734 mmHg 89%
22:00 +19°C° 0.1 mm 2 mps 734 mmHg 90%
23:00 +19°C° 0.1 mm 2 mps 734 mmHg 92%

20 August, Thursday

Time Temperature Precipitation Wind Pressure Humidity
00:00 +18°C° 0 mm 2 mps 734 mmHg 92%
01:00 +18°C° 0 mm 2 mps 734 mmHg 93%
02:00 +17°C° 0 mm 2 mps 734 mmHg 93%
03:00 +18°C° 0 mm 1 mps 734 mmHg 93%
04:00 +18°C° 0 mm 1 mps 734 mmHg 93%
05:00 +16°C° 0 mm 1 mps 734 mmHg 93%
06:00 +19°C° 0 mm 1 mps 735 mmHg 89%
07:00 +20°C° 0 mm 1 mps 735 mmHg 85%
08:00 +22°C° 0 mm 1 mps 735 mmHg 81%
09:00 +23°C° 0 mm 2 mps 735 mmHg 76%
10:00 +24°C° 0 mm 2 mps 735 mmHg 71%
11:00 +25°C° 0 mm 2 mps 736 mmHg 66%
12:00 +25°C° 0 mm 2 mps 736 mmHg 65%
13:00 +25°C° 0 mm 3 mps 735 mmHg 64%
14:00 +26°C° 0 mm 3 mps 735 mmHg 62%
15:00 +26°C° 0.1 mm 2 mps 735 mmHg 66%
16:00 +25°C° 0.1 mm 2 mps 735 mmHg 70%
17:00 +25°C° 0.1 mm 2 mps 735 mmHg 74%
18:00 +23°C° 0.2 mm 2 mps 736 mmHg 78%
19:00 +21°C° 0.2 mm 2 mps 736 mmHg 83%
20:00 +19°C° 0.2 mm 2 mps 736 mmHg 87%
21:00 +18°C° 0 mm 2 mps 736 mmHg 89%
22:00 +18°C° 0 mm 2 mps 736 mmHg 91%
23:00 +17°C° 0 mm 2 mps 736 mmHg 93%
Show more